Weather History for Norwood, MA

Change the Weather History Date:

Friday, January 11, 2013

  Actual Average Record
Temperature  
Mean Temperature 31 °F -  
Max Temperature 41 °F 33 °F 59 °F (2014)
Min Temperature 21 °F 17 °F 0 °F (2004)
Degree Days  
Heating Degree Days 34    
Moisture  
Dew Point 27 °F    
Average Humidity 80    
Maximum Humidity 96    
Minimum Humidity 60    
Precipitation  
Precipitation 0.11 in - - ()
Sea Level Pressure  
Sea Level Pressure 30.39 in    
Wind  
Wind Speed 0 mph (SE)    
Max Wind Speed 5 mph    
Max Gust Speed -    
Visibility 9 miles    
Events Rain    
Averages and records for this station are not official NWS values.
T = Trace of Precipitation, MM = Missing Value Source: NWS Daily Summary

Daily Weather History Graph

Daily Weather History Graph

Search for Another Location

Airport:

Trip Planner

Search our weather history database for the weather conditions in past years. The results will help you decide how hot, cold, wet, or windy it might be!

Date:

Astronomy

Jan. 11, 2013 Rise Set
Actual Time 7:12 AM EST 4:33 PM EST
Civil Twilight 6:41 AM EST 5:04 PM EST
Nautical Twilight 6:06 AM EST 5:39 PM EST
Astronomical Twilight 5:32 AM EST 6:13 PM EST
Moon 6:42 AM EST (1/11) 4:48 PM EST (1/11)
Length of Visible Light 10h 23m
Length of Day
9h 21m
Waning Crescent, 0% of the Moon is Illuminated
Jan 11
Waning Crescent
Jan 11
New
Jan 18
First Quarter
Jan 26
Full
Feb 3
Last Quarter

Hourly Weather History & Observations

Time (EST) Temp. Windchill Dew Point Humidity Pressure Visibility Wind Dir Wind Speed Gust Speed Precip Events Conditions
12:53 AM 28.0 °F - 19.9 °F 72% 30.53 in 10.0 mi Calm Calm - N/A   Clear
1:53 AM 25.0 °F - 19.9 °F 81% 30.51 in 10.0 mi Calm Calm - N/A   Clear
2:53 AM 23.0 °F - 21.0 °F 92% 30.51 in 10.0 mi Calm Calm - N/A   Clear
3:53 AM 21.9 °F - 19.0 °F 89% 30.49 in 10.0 mi Calm Calm - N/A   Clear
4:53 AM 21.0 °F - 17.1 °F 85% 30.48 in 10.0 mi Calm Calm - N/A   Clear
5:53 AM 21.0 °F - 18.0 °F 88% 30.50 in 10.0 mi Calm Calm - N/A   Clear
6:53 AM 24.1 °F - 19.9 °F 84% 30.50 in 10.0 mi Calm Calm - N/A   Clear
7:53 AM 24.1 °F - 21.0 °F 88% 30.51 in 10.0 mi Calm Calm - N/A   Clear
8:53 AM 30.0 °F - 25.0 °F 82% 30.51 in 10.0 mi Calm Calm - N/A   Clear
9:53 AM 34.0 °F - 25.0 °F 70% 30.49 in 10.0 mi Calm Calm - N/A   Clear
10:53 AM 37.9 °F - 25.0 °F 60% 30.46 in 10.0 mi Calm Calm - N/A   Clear
11:53 AM 39.0 °F - 27.0 °F 62% 30.43 in 10.0 mi Calm Calm - N/A   Clear
12:53 PM 39.9 °F - 28.0 °F 63% 30.40 in 10.0 mi Calm Calm - N/A   Clear
1:53 PM 41.0 °F - 28.0 °F 60% 30.38 in 10.0 mi Calm Calm - N/A   Clear
3:53 PM 39.9 °F - 28.9 °F 65% 30.34 in 10.0 mi Calm Calm - N/A   Mostly Cloudy
4:53 PM 39.0 °F - 28.9 °F 67% 30.32 in 10.0 mi Calm Calm - N/A   Overcast
5:53 PM 37.0 °F - 30.9 °F 79% 30.31 in 10.0 mi Calm Calm - 0.00 in   Overcast
6:53 PM 36.0 °F - 33.1 °F 89% 30.29 in 10.0 mi Calm Calm - 0.00 in   Overcast
7:53 PM 37.9 °F - 33.1 °F 83% 30.27 in 10.0 mi Calm Calm - 0.01 in Rain Light Rain
8:53 PM 37.0 °F 34.5 °F 34.0 °F 89% 30.26 in 7.0 mi Variable 3.5 mph - 0.04 in Rain Light Rain
9:53 PM 37.9 °F - 35.1 °F 89% 30.25 in 4.0 mi Calm Calm - 0.03 in Rain Light Rain
10:46 PM 37.4 °F 33.8 °F 35.6 °F 93% 30.22 in 6.0 mi SE 4.6 mph - 0.02 in Rain Light Rain
10:53 PM 37.0 °F 33.3 °F 35.1 °F 93% 30.23 in 7.0 mi SE 4.6 mph - 0.02 in   Overcast
11:09 PM 37.4 °F - 35.6 °F 93% 30.23 in 8.0 mi Calm Calm - 0.01 in Rain Light Rain
11:53 PM 37.0 °F - 36.0 °F 96% 30.24 in 10.0 mi Calm Calm - 0.01 in   Overcast